Weather History for Ouargla, Algeria

Change the Weather History Date:

Friday, February 1, 2013

  Actual Average Record
Temperature  
Mean Temperature 57 °F -  
Max Temperature 78 °F - - ()
Min Temperature 36 °F - - ()
Degree Days  
Heating Degree Days 8    
Growing Degree Days 7 (Base 50)    
Moisture  
Dew Point 40 °F    
Average Humidity 50    
Maximum Humidity 65    
Minimum Humidity 30    
Precipitation  
Precipitation 0.00 in - - ()
Sea Level Pressure  
Sea Level Pressure 30.29 in    
Wind  
Wind Speed 1 mph ()    
Max Wind Speed 9 mph    
Max Gust Speed -    
Visibility 6.0 miles    
Events      
T = Trace of Precipitation, MM = Missing Value Source: Averaged Metar Reports

Daily Weather History Graph

Daily Weather History Graph

Search for Another Location

Airport:

Trip Planner

Search our weather history database for the weather conditions in past years. The results will help you decide how hot, cold, wet, or windy it might be!

Date:

Astronomy

Feb. 01, 2013 Rise Set
Actual Time 7:31 AM CET 6:12 PM CET
Civil Twilight 7:06 AM CET 6:38 PM CET
Nautical Twilight 6:36 AM CET 7:07 PM CET
Astronomical Twilight 6:08 AM CET 7:36 PM CET
Moon 11:37 PM CET (2/1) 10:18 AM CET (2/1)
Length of Visible Light 11h 31m
Length of Day
10h 40m
Waning Gibbous, 73% of the Moon is Illuminated
Feb 1
Waning Gibbous
Feb 3
Last Quarter
Feb 10
New
Feb 17
First Quarter
Feb 25
Full

Hourly Weather History & Observations

Time (CET) Temp. Dew Point Humidity Pressure Visibility Wind Dir Wind Speed Gust Speed Precip Events Conditions
1:00 AM 49 °F 32 °F 40% 30.37 in 6 mi Calm Calm - -  
1:00 AM 48.2 °F 32.0 °F 54% 30.36 in - Calm Calm - N/A   Clear
2:00 AM 48.2 °F 32.0 °F 54% 30.36 in - Calm Calm - N/A   Clear
3:00 AM 48.2 °F 30.2 °F 50% 30.36 in - Calm Calm - N/A   Clear
4:00 AM 44 °F 29 °F 44% 30.36 in 6 mi Calm Calm - -  
4:00 AM 42.8 °F 28.4 °F 57% 30.36 in - Calm Calm - N/A   Clear
6:00 AM 41.0 °F 30.2 °F 65% 30.33 in - Calm Calm - N/A   Clear
7:00 AM 40 °F 27 °F 49% 30.34 in 6 mi Calm Calm - -  
7:00 AM 39.2 °F 26.6 °F 61% 30.33 in - Calm Calm - N/A   Clear
8:00 AM 39.2 °F 28.4 °F 65% 30.33 in - Calm Calm - N/A   Clear
9:00 AM 44.6 °F 32.0 °F 61% 30.36 in - Calm Calm - N/A   Clear
10:00 AM 51 °F 35 °F 43% 30.37 in 6 mi Calm Calm - -  
10:00 AM 50.0 °F 35.6 °F 58% 30.36 in - Calm Calm - N/A   Clear
11:00 AM 59.0 °F 41.0 °F 51% 30.36 in - Calm Calm - N/A   Clear
12:00 PM 64.4 °F 44.6 °F 49% 30.33 in - Calm Calm - N/A   Clear
1:00 PM 69 °F 47 °F 34% 30.33 in 6 mi Calm Calm - -  
1:00 PM 68.0 °F 46.4 °F 46% 30.33 in - Calm Calm - N/A   Clear
2:00 PM 71.6 °F 50.0 °F 46% 30.27 in - Calm Calm - N/A   Clear
4:00 PM 78 °F 52 °F 30% 30.22 in 6 mi Calm Calm - -  
4:00 PM 78.8 °F 51.8 °F 39% 30.21 in - Calm Calm - N/A   Clear
5:00 PM 77.0 °F 51.8 °F 41% 30.21 in - Calm Calm - N/A   Clear
6:00 PM 75.2 °F 51.8 °F 44% 30.18 in - WSW 5.8 mph - N/A   Clear
7:00 PM 68 °F 46 °F 34% 30.21 in 6 mi South 9.2 mph - -  
7:00 PM 68.0 °F 46.4 °F 46% 30.18 in - South 9.2 mph - N/A   Clear
8:00 PM 62.6 °F 44.6 °F 52% 30.18 in - South 4.6 mph - N/A   Clear
9:00 PM 59.0 °F 44.6 °F 59% 30.18 in - South 4.6 mph - N/A   Clear
10:00 PM 57 °F 44 °F 50% 30.18 in 6 mi South 9.2 mph - -  
10:00 PM 57.2 °F 42.8 °F 59% 30.18 in - South 9.2 mph - N/A   Clear
11:00 PM 55.4 °F 42.8 °F 63% 30.15 in - SSW 9.2 mph - N/A   Clear